Theta_e
337 338 338 338 338 338 339 340 340 341 342 342 342 341 341 342 342 342 343 342 342 341 340 341 341 340 340 341 341 339 340 339 336 334 327 322 323 323 321 321 320 320 319 320 320 320 321 321 322 323 323 324 325 326 327 329 331 333 336 338 340 341 342 343 343 343 344 344 344 344 344 344 344 343 343 343 343 343 343 343 344 345 346 346 346
337 337 338 339 339 338 340 340 340 341 341 341 342 342 342 343 342 343 343 343 343 343 342 343 343 343 342 343 344 343 342 340 337 334 324 319 320 319 319 320 320 321 321 322 323 323 324 325 326 327 327 329 330 332 334 336 337 339 340 341 341 342 342 342 343 343 343 343 342 343 343 343 342 342 342 341 340 340 340 341 343 343 344 346 346
338 338 338 339 340 340 340 339 339 339 341 342 342 343 343 343 343 343 344 343 343 343 343 343 343 343 344 345 345 345 342 340 342 336 323 318 320 321 324 325 324 325 325 326 327 328 329 330 331 332 334 335 336 338 338 339 340 340 340 340 341 341 342 342 342 342 342 342 342 342 342 342 342 341 340 340 340 339 339 340 341 342 344 345 346
340 341 341 340 340 341 341 338 339 340 340 342 344 343 343 343 344 344 344 344 344 344 343 344 343 344 344 343 344 345 340 339 344 338 326 324 326 330 334 331 329 329 329 331 332 333 334 335 336 337 338 338 338 339 339 339 338 338 339 339 340 340 341 341 341 342 342 342 342 341 341 341 340 339 338 338 337 337 337 338 339 339 341 343 344
343 343 343 341 340 342 342 338 340 342 340 342 344 344 344 344 344 344 344 344 344 344 343 344 343 343 343 341 342 343 339 340 347 341 334 335 334 337 340 335 333 333 333 334 335 335 335 335 335 334 334 333 334 334 334 334 334 334 335 336 337 338 339 340 340 341 341 341 341 341 340 339 338 337 336 336 336 336 336 337 337 338 338 339 340
342 342 341 340 340 342 341 337 338 341 341 343 344 344 345 345 345 345 345 345 344 344 343 343 344 343 343 343 344 343 341 344 346 341 337 338 337 339 340 339 339 338 335 335 335 332 330 330 329 328 327 327 328 328 329 329 330 331 331 333 334 335 336 336 338 338 339 339 338 338 338 337 336 335 335 334 334 334 335 336 337 337 338 338 339
339 339 339 339 340 340 340 338 338 340 343 344 345 345 346 346 346 346 345 345 345 344 342 343 344 344 342 344 345 344 344 345 346 342 340 338 338 341 342 346 349 345 341 340 338 333 330 329 328 327 325 325 325 326 327 328 329 330 330 331 331 332 333 333 334 334 335 335 335 335 335 336 336 336 336 335 335 335 335 336 337 338 338 339 339
340 340 339 340 342 341 340 340 340 341 343 345 347 348 347 346 346 346 345 344 343 343 342 342 344 343 341 343 344 344 344 345 345 344 344 342 342 344 344 347 351 350 346 345 340 333 333 336 335 334 331 326 324 325 325 326 327 329 329 330 329 330 330 330 330 331 332 333 334 336 337 338 339 340 340 340 340 339 338 338 337 338 338 339 339
342 341 341 342 343 341 340 340 341 343 346 347 348 348 348 347 346 346 345 344 342 343 342 341 343 341 339 341 343 345 345 345 345 343 345 346 344 345 345 345 348 349 346 344 341 335 337 341 341 342 339 331 326 324 324 325 325 327 327 327 328 328 329 329 330 332 333 335 336 338 339 341 342 343 344 344 344 344 343 342 341 339 339 338 338
342 340 341 341 340 341 342 341 341 346 349 348 347 348 347 347 346 346 346 346 344 343 342 342 343 342 341 342 342 344 345 345 344 341 343 345 344 345 346 345 346 347 347 346 343 341 342 344 346 347 344 337 330 326 324 325 325 326 327 327 329 329 330 331 332 333 334 335 336 338 340 341 343 344 345 345 346 346 346 345 344 343 341 338 337
338 336 338 338 338 341 341 339 340 344 347 347 348 349 348 346 346 346 345 345 345 343 341 342 343 342 342 343 341 342 346 345 343 342 342 344 344 344 345 346 347 347 347 347 345 346 347 345 346 349 350 344 336 330 326 326 327 328 329 330 331 332 332 331 332 332 333 333 335 337 339 341 342 344 344 345 345 346 346 346 346 345 344 340 337
341 341 343 341 341 342 342 339 340 344 347 350 350 348 347 346 345 345 344 343 344 343 341 342 342 340 340 342 342 343 346 347 344 343 342 343 344 344 343 344 347 347 347 346 344 345 347 344 342 346 350 349 341 335 330 328 329 330 330 331 332 333 332 332 332 331 331 332 332 334 336 339 341 342 343 344 344 344 344 344 344 345 346 343 338
348 348 348 347 347 349 349 348 347 349 351 352 350 347 347 347 346 346 346 344 344 343 341 340 340 341 342 342 342 343 344 345 344 342 341 341 343 344 344 343 344 346 345 345 342 340 341 341 342 342 345 346 342 337 333 329 330 331 331 332 332 333 333 332 332 331 331 330 330 330 332 335 338 340 341 342 342 342 342 341 341 342 344 344 341
349 349 347 347 349 351 352 351 350 350 349 349 349 347 347 348 348 347 347 345 343 342 341 341 341 343 344 343 344 344 344 344 343 342 340 341 342 344 345 343 342 344 342 342 340 338 337 338 341 343 342 342 339 335 333 331 332 333 333 333 333 334 334 334 334 333 333 332 332 331 331 332 334 336 338 339 341 342 342 340 337 335 337 341 341
347 347 345 346 349 350 349 348 346 345 343 345 349 348 347 348 347 346 345 345 344 343 345 345 342 342 343 344 344 344 346 346 343 342 342 341 342 343 345 343 342 343 342 341 340 340 342 337 334 339 342 341 337 334 334 333 334 334 335 335 336 336 337 337 337 337 336 336 335 335 333 333 332 333 334 335 338 340 341 341 336 331 331 334 336
344 346 344 344 346 346 344 343 343 343 343 346 350 350 350 348 346 346 346 345 345 346 348 346 343 342 343 345 346 345 345 346 345 344 342 341 340 341 342 341 342 343 342 342 341 341 344 341 333 333 337 337 333 333 335 335 336 337 339 340 340 341 341 341 341 340 339 338 338 338 337 336 334 333 332 332 334 336 339 340 336 330 328 330 332
342 345 344 343 344 343 342 342 342 343 345 349 352 351 351 349 347 348 348 346 346 347 347 345 344 344 345 346 345 345 345 343 344 343 342 342 341 340 340 341 342 342 341 341 342 341 344 344 339 334 334 334 332 332 335 337 339 340 341 342 343 343 344 343 343 342 342 340 339 340 339 338 336 334 333 332 332 332 335 337 337 332 330 331 332
343 344 343 343 344 343 341 342 344 344 346 350 351 350 349 349 348 348 347 347 348 347 346 345 345 345 345 345 344 344 344 343 342 342 342 341 341 341 341 341 341 341 342 343 342 341 343 344 341 337 335 335 333 333 334 338 340 340 342 342 342 344 344 344 343 343 343 343 342 341 341 339 337 335 333 331 330 330 331 334 336 335 333 333 334
345 343 342 343 343 343 342 343 345 346 348 350 352 352 350 348 349 348 346 346 347 347 346 345 344 344 344 344 344 344 343 341 341 341 341 341 341 341 341 341 342 342 343 343 342 341 342 343 341 339 338 337 335 333 334 338 340 341 344 343 342 343 342 342 342 341 343 345 345 344 341 339 337 335 333 331 330 329 328 329 332 334 335 335 336
344 342 342 342 342 342 342 342 344 347 350 351 352 352 349 348 349 348 347 346 346 347 347 345 344 345 343 342 342 343 344 343 341 341 341 341 341 341 341 342 342 343 342 343 343 342 341 342 341 340 341 340 338 335 334 338 339 340 344 344 343 342 342 341 340 341 345 347 347 346 342 338 336 334 333 330 328 327 326 326 327 330 333 336 337
344 343 341 341 341 342 343 342 343 348 351 351 352 351 347 346 348 348 348 346 346 348 348 346 345 345 343 343 342 342 345 346 343 343 342 341 341 340 340 341 341 342 341 341 341 341 341 341 342 341 342 341 339 338 338 339 339 340 342 342 341 342 343 342 341 343 347 348 347 346 342 337 335 333 331 329 327 326 325 325 325 325 327 331 335
344 343 342 341 340 342 344 345 346 349 353 352 352 350 346 345 346 347 347 346 347 349 349 347 345 345 344 346 345 343 345 347 346 345 343 341 341 340 340 341 341 340 340 340 341 341 341 341 342 342 342 342 341 341 341 341 340 339 340 340 340 343 345 343 342 344 347 348 347 346 344 339 335 333 330 328 327 326 325 324 323 324 324 326 328
345 343 342 341 341 342 345 347 347 349 353 352 349 347 346 346 345 344 344 345 348 348 347 345 343 344 345 346 346 345 346 347 345 345 344 343 342 341 341 342 342 341 341 341 342 343 342 342 343 342 342 342 341 342 342 343 342 342 342 340 339 345 348 346 344 343 344 347 347 347 345 342 338 337 334 331 328 326 325 324 323 324 324 324 324
344 344 343 342 342 343 344 346 347 348 350 349 348 347 349 348 344 343 344 345 346 345 344 343 344 346 346 346 346 346 347 346 344 344 343 343 343 343 343 342 342 342 342 342 342 343 342 343 343 342 342 342 342 342 344 345 345 343 342 342 343 347 349 349 347 344 342 343 346 347 346 343 342 343 341 336 332 329 327 325 324 326 326 326 325
344 343 343 343 343 343 344 347 348 346 346 348 349 349 351 350 344 342 343 343 344 345 343 343 346 349 348 347 348 346 346 346 346 346 345 344 344 344 344 342 342 343 344 343 343 343 343 343 343 342 342 344 344 344 346 347 345 343 344 346 346 347 349 349 349 346 342 342 345 348 346 343 343 344 343 338 335 334 332 328 327 328 329 329 327
345 345 343 344 344 344 346 349 349 346 344 347 350 350 352 350 344 343 343 342 344 346 345 345 348 351 349 349 350 347 347 347 346 347 346 346 346 344 344 343 342 343 344 344 344 343 343 344 343 342 344 345 345 346 348 348 346 345 346 347 346 348 349 349 349 347 342 343 347 348 345 343 344 345 343 339 338 337 335 332 330 329 330 331 329
345 346 347 348 347 346 346 347 348 346 344 345 347 350 352 348 345 345 344 342 343 344 345 346 347 349 349 349 349 349 349 348 346 347 346 347 348 347 346 345 344 343 343 344 344 344 345 345 344 344 345 345 345 347 347 347 348 349 348 348 348 349 349 350 350 346 343 347 349 347 344 343 344 344 342 339 338 338 337 337 336 333 332 332 332
345 348 350 352 350 347 345 344 345 345 343 343 344 345 346 345 345 347 345 343 343 344 346 345 346 349 349 349 350 349 349 349 348 348 347 349 349 348 346 346 345 344 343 343 343 344 345 345 344 345 344 345 347 348 347 347 348 349 348 349 349 349 349 350 348 344 345 349 349 346 344 344 345 344 341 339 339 338 338 340 341 338 335 334 334
346 348 351 353 350 346 344 343 344 345 343 343 342 342 341 341 344 346 344 344 343 344 346 345 344 349 349 350 351 349 347 348 349 348 348 350 350 347 346 348 349 349 347 345 343 343 344 343 344 344 343 345 346 347 348 349 349 349 349 350 349 349 349 348 346 346 348 349 348 346 345 345 345 342 339 339 339 338 338 341 343 340 338 338 337
347 349 349 349 349 345 343 342 343 345 344 343 343 342 341 340 342 343 342 345 344 343 345 345 344 349 351 351 352 351 348 349 349 348 349 351 352 350 349 351 352 352 351 349 346 343 343 343 344 343 343 344 344 346 349 351 351 350 351 351 350 349 348 347 347 348 349 348 347 345 345 346 344 340 339 339 339 339 339 342 343 340 340 343 341
349 350 348 346 346 345 344 344 344 345 345 344 343 343 343 341 342 343 343 344 344 342 344 344 344 349 353 352 353 354 352 351 350 350 350 351 352 351 351 351 351 352 352 351 348 345 345 348 347 345 344 344 343 345 348 350 351 352 352 351 350 349 348 349 349 350 349 347 346 346 346 344 340 339 340 339 339 340 340 343 344 340 341 345 345
350 350 348 347 345 345 346 345 345 345 345 345 344 342 343 343 342 344 345 346 346 345 345 344 344 349 353 353 353 354 353 352 351 350 350 351 352 352 351 351 352 352 353 352 351 350 350 351 350 346 344 344 344 345 345 347 348 349 350 349 350 350 351 351 350 349 348 345 345 347 345 341 341 342 339 338 341 342 343 345 343 341 343 346 346
352 351 350 348 346 346 346 345 345 347 346 345 345 343 343 343 343 344 346 348 348 349 348 345 345 350 353 353 352 351 350 348 348 348 348 351 352 352 351 351 352 352 353 353 354 353 350 349 349 347 345 344 343 344 344 344 346 347 348 349 350 351 350 348 344 342 344 346 348 347 344 343 343 341 339 341 344 346 346 344 341 341 345 346 346
354 354 352 351 350 349 347 346 347 349 349 348 347 345 344 344 344 344 346 348 350 351 350 347 346 348 350 349 348 347 346 345 346 348 349 349 351 352 351 351 351 352 353 353 353 352 349 347 347 346 344 343 343 343 345 345 345 345 346 346 346 346 343 342 340 340 342 344 344 341 340 340 339 340 343 346 347 346 344 341 339 343 345 344 346
354 355 354 353 353 352 351 351 352 352 353 354 351 349 348 347 346 345 345 349 352 352 351 348 345 345 347 346 346 346 346 346 349 352 352 351 351 351 351 352 352 352 352 353 352 351 350 348 347 346 346 345 344 344 346 346 344 343 342 343 343 343 342 341 341 342 343 343 342 340 339 337 335 339 343 344 343 343 342 340 341 343 343 343 347
354 355 354 353 353 354 354 354 355 354 354 355 355 352 351 351 351 348 348 351 353 353 353 352 348 348 350 350 351 352 353 353 353 353 353 353 352 350 350 351 352 352 353 354 353 353 353 352 350 349 349 347 346 346 347 346 343 342 343 343 344 344 343 342 343 344 345 347 347 343 339 336 335 338 341 342 343 344 344 343 343 343 344 347 351
355 355 354 354 354 355 355 354 355 355 354 355 355 354 352 354 354 352 350 352 353 353 354 353 351 351 353 354 355 355 356 355 354 353 353 353 353 353 353 353 353 353 353 353 353 353 354 354 352 350 349 349 348 346 346 345 344 344 345 345 346 345 345 345 345 345 347 347 345 340 336 334 336 340 343 345 346 346 345 343 344 345 347 351 353
355 354 354 353 353 354 355 354 353 354 355 355 354 353 353 355 355 354 354 353 353 353 352 351 350 351 353 355 354 353 353 353 352 353 354 354 354 353 353 353 352 352 351 352 353 354 354 355 354 352 351 349 347 342 341 344 346 347 347 346 345 345 346 346 346 346 345 342 338 336 334 335 339 342 344 346 346 346 345 345 348 350 352 353 354
354 354 353 352 353 354 355 355 353 354 355 355 353 351 353 355 355 356 357 356 355 355 354 353 352 353 354 355 354 352 352 351 350 350 352 354 354 353 351 351 352 352 353 353 353 354 354 354 352 349 345 342 339 337 339 344 348 348 347 346 345 346 346 346 345 343 340 337 336 335 335 338 342 343 344 347 347 346 348 350 351 353 353 353 355
352 352 351 352 353 354 355 356 355 354 355 356 354 352 353 354 354 355 357 357 356 356 356 356 355 355 355 355 354 352 351 351 350 350 350 351 352 351 349 348 349 350 350 350 350 349 347 345 342 339 338 337 336 337 340 344 346 345 345 345 347 347 346 344 341 339 337 336 336 335 337 340 342 343 346 349 349 349 350 352 352 353 353 353 353
350 350 350 350 351 351 352 353 354 354 355 355 355 354 353 353 353 353 353 355 356 356 355 355 355 355 354 354 353 352 350 349 349 348 348 349 349 349 349 348 348 348 347 346 344 340 336 336 337 339 341 342 342 342 343 344 344 344 344 345 346 345 342 340 339 338 338 338 338 338 339 342 343 345 347 349 350 350 351 352 353 354 354 354 354
347 348 348 349 350 349 348 349 352 354 354 354 353 353 353 353 353 352 351 351 353 354 354 354 355 354 354 353 352 351 350 348 347 347 347 348 349 349 349 350 350 349 347 343 340 338 339 341 342 343 344 344 345 345 346 346 346 346 346 346 346 344 342 342 340 339 340 342 343 341 341 344 346 347 348 349 351 351 352 352 353 353 355 356 356
346 346 347 348 349 349 347 349 351 351 352 352 352 352 352 353 353 351 349 348 349 351 352 352 352 352 351 351 351 351 351 350 348 347 346 348 350 350 350 351 351 350 348 346 345 344 345 346 345 346 346 346 347 347 348 348 349 349 349 348 347 346 345 345 345 344 345 346 346 344 343 345 348 348 348 349 351 353 353 353 353 353 354 356 356
346 345 346 347 347 347 347 348 348 347 348 348 349 349 349 350 349 347 346 346 348 349 349 350 351 350 350 349 350 351 352 351 350 348 346 347 349 350 351 352 351 349 349 349 349 349 349 350 349 349 348 348 348 347 349 350 351 350 350 349 349 348 348 348 348 348 348 348 348 348 346 346 348 349 349 350 352 354 353 354 353 353 354 354 355
346 345 346 346 347 347 347 347 347 346 345 346 346 347 348 348 348 346 346 347 348 348 347 347 348 349 349 349 348 349 350 349 349 349 348 348 349 350 352 352 350 350 350 350 350 350 351 352 351 350 349 349 348 347 348 350 351 351 351 351 351 350 350 350 349 349 349 349 350 350 349 348 350 351 351 350 351 352 352 353 353 353 353 353 355
347 347 347 347 347 347 347 347 348 347 346 346 346 345 346 346 346 346 346 346 349 350 349 346 345 345 346 347 348 348 348 347 347 346 347 349 350 350 351 352 352 353 352 352 352 351 351 352 351 351 350 349 349 348 348 349 350 351 352 353 352 351 350 349 349 350 350 350 351 351 350 350 351 352 352 352 351 351 351 352 352 352 352 351 351
346 346 346 348 349 349 349 348 348 347 346 347 346 345 344 344 344 345 345 346 349 350 349 347 346 345 344 343 344 346 347 346 345 345 346 347 348 349 351 352 353 352 352 353 353 351 351 351 351 351 351 351 350 349 349 350 350 351 352 353 352 351 350 350 350 351 350 350 351 352 352 352 352 352 352 351 351 350 350 350 349 349 350 349 349
344 344 344 346 349 350 350 350 349 348 347 347 346 346 346 345 344 344 345 346 348 348 347 347 346 346 345 343 342 343 345 345 345 345 345 346 347 349 350 350 350 350 351 352 351 350 350 350 351 352 352 352 352 351 351 352 351 351 352 352 352 351 351 351 351 350 350 350 351 351 352 351 351 351 351 350 349 349 349 349 349 349 349 349 348
346 346 345 346 348 349 350 350 350 349 349 348 348 348 348 348 346 346 346 346 347 347 347 347 347 347 347 345 344 343 343 343 343 344 344 346 347 348 347 347 348 349 350 349 349 349 349 350 351 352 352 352 351 351 351 351 351 351 351 351 352 352 352 352 352 351 351 350 350 349 349 349 349 348 346 345 346 346 346 347 348 348 348 348 348
349 348 348 348 348 348 348 349 349 349 349 349 350 350 350 350 349 349 349 349 349 349 349 349 349 348 347 347 347 346 346 346 346 346 346 347 348 348 348 348 349 350 349 349 349 349 349 350 351 351 351 351 350 350 350 351 351 351 351 351 351 351 351 350 348 347 346 344 344 343 343 344 343 338 336 336 337 339 341 343 344 345 346 347 347
347 348 349 349 349 348 348 349 349 349 349 350 350 350 350 350 351 351 352 351 351 351 350 350 349 348 348 348 348 349 349 349 348 348 348 348 349 349 349 349 349 349 349 348 348 348 348 348 348 348 349 350 350 350 350 351 351 351 350 350 349 347 344 339 337 339 340 337 334 333 332 332 330 328 332 338 339 337 336 338 339 339 341 343 344
Wind_Speed
18 18 17 17 17 16 15 14 14 13 14 15 15 16 17 16 15 15 15 14 14 13 11 10 9 10 9 7 5 5 6 8 8 8 8 7 6 7 8 9 10 10 10 10 10 10 10 10 10 10 11 11 11 10 10 10 10 9 9 9 9 9 8 8 8 7 7 8 8 7 7 7 7 7 7 7 7 6 6 6 5 5 5 5 5
16 16 16 16 16 16 14 13 12 12 13 14 15 16 16 15 14 13 11 11 11 10 7 7 9 9 8 8 8 9 9 10 11 11 9 9 10 10 12 13 13 13 12 12 12 11 11 11 11 12 12 11 11 11 10 10 10 9 9 9 9 8 8 8 8 7 7 7 7 7 7 7 7 7 7 7 7 7 7 6 6 6 6 6 6
14 14 14 14 15 14 13 12 12 12 14 15 15 15 15 14 13 11 9 9 10 10 7 4 5 7 9 8 6 7 8 9 13 12 10 12 14 15 16 17 15 14 14 13 13 12 12 12 12 13 12 12 11 11 10 10 9 9 8 8 8 7 7 8 7 7 7 7 7 7 7 7 7 7 7 7 7 7 7 7 7 6 6 7 7
12 12 13 14 14 14 13 13 12 12 14 15 15 15 15 14 12 11 10 8 7 9 8 6 4 4 8 6 4 4 4 7 11 11 12 14 16 17 17 17 17 16 15 15 15 14 13 13 13 13 12 11 11 10 10 9 9 8 8 8 7 8 8 7 7 7 7 7 7 6 6 6 6 7 7 7 7 7 7 7 7 7 7 7 7
11 11 12 13 13 14 14 13 12 11 12 15 15 15 15 14 14 12 8 6 6 7 7 6 6 5 7 4 2 4 2 6 8 8 10 12 12 14 14 16 18 18 17 17 16 15 14 13 13 13 12 12 11 11 10 10 9 9 8 8 8 9 8 8 7 7 7 7 6 6 6 6 6 7 7 7 8 8 8 7 7 8 8 8 8
10 9 10 12 12 12 13 12 11 11 13 15 15 15 15 15 15 12 7 6 6 6 6 5 6 9 8 4 4 6 5 4 6 6 9 9 10 12 13 16 18 18 18 18 18 17 16 15 14 14 13 13 12 12 12 11 11 10 10 10 10 10 10 9 8 8 8 7 7 7 7 7 7 8 8 9 9 9 9 9 8 8 9 9 9
9 9 10 12 12 11 12 13 13 13 13 14 15 15 15 15 14 10 8 7 6 7 8 5 6 11 8 3 5 7 6 3 3 6 9 10 11 13 13 14 15 16 17 16 17 17 18 17 16 16 15 14 13 13 13 12 12 12 12 13 12 12 11 11 10 9 9 9 8 8 8 9 9 9 10 10 11 11 10 10 9 9 9 9 9
8 9 11 13 13 12 12 13 13 13 12 12 13 13 12 12 11 8 7 8 8 8 7 7 9 11 9 6 7 10 7 4 4 4 7 8 11 11 11 12 12 14 14 14 14 16 18 18 18 18 17 15 14 13 13 12 12 13 13 13 13 13 13 13 12 11 11 11 10 10 10 10 11 11 11 12 12 12 12 11 11 10 10 9 9
10 10 12 14 15 14 13 14 14 13 12 12 12 11 10 10 9 8 8 7 8 10 8 9 11 9 9 9 9 9 6 6 5 1 3 5 8 9 10 10 10 11 13 12 12 14 15 16 17 18 18 17 16 14 13 12 12 12 12 12 13 14 14 14 13 13 13 12 12 12 11 12 12 12 12 12 13 13 13 13 12 12 11 10 10
10 10 12 15 16 14 14 15 13 11 12 12 13 12 10 9 9 9 8 6 7 9 8 8 11 10 9 9 7 7 7 8 6 3 2 4 6 7 8 8 8 9 9 10 10 10 12 14 14 15 16 17 16 15 13 12 11 11 12 12 13 14 14 14 14 13 13 13 13 12 12 12 12 13 13 13 13 13 13 13 13 13 13 12 11
13 13 13 14 14 12 13 13 10 9 12 14 12 10 9 10 11 10 9 10 10 9 7 9 12 9 8 9 7 9 10 10 8 7 5 5 6 7 7 7 7 7 7 8 9 8 9 11 12 13 13 13 14 14 13 12 12 12 13 13 13 13 13 13 14 13 13 13 13 13 13 13 13 13 13 13 13 13 13 13 13 13 13 13 12
16 17 14 12 12 12 13 13 9 9 11 12 9 9 10 12 13 11 10 11 10 10 9 11 12 7 7 10 10 12 12 9 9 9 5 4 6 6 8 8 6 6 6 7 9 9 8 9 10 10 11 10 11 12 11 10 11 12 13 13 12 12 13 13 13 14 14 14 14 14 14 14 14 14 14 14 13 13 13 13 13 12 13 13 13
14 16 14 11 11 11 10 10 10 10 10 9 9 10 11 13 13 10 9 10 9 8 9 10 9 8 8 9 10 13 12 9 10 8 5 7 7 5 7 10 9 7 7 7 9 9 7 8 9 8 8 9 10 11 11 10 11 11 12 12 12 11 12 13 13 14 14 15 15 15 15 15 14 14 14 14 13 13 13 13 13 13 12 12 13
12 13 14 12 12 12 10 8 8 10 10 10 10 10 11 12 11 8 8 9 9 10 10 9 8 7 8 8 8 9 8 9 11 9 7 9 9 7 6 8 8 8 9 10 10 10 9 8 7 7 7 8 9 10 12 12 11 11 11 11 12 12 13 13 14 14 15 16 16 16 16 16 16 15 14 14 14 13 13 13 13 13 13 12 13
13 12 12 13 13 12 10 9 9 9 10 11 10 10 10 11 11 9 10 11 10 10 8 7 8 7 6 5 5 5 5 8 12 11 7 9 9 8 7 4 4 5 7 9 9 9 11 12 8 6 5 6 9 10 11 13 12 12 12 12 13 13 13 13 14 14 15 16 16 17 17 17 17 17 16 15 14 14 13 13 13 13 13 12 12
13 12 11 12 12 11 9 9 10 9 11 12 11 10 10 10 11 10 10 10 9 7 6 5 8 8 6 4 4 3 2 6 10 11 10 6 8 9 7 3 3 4 5 7 8 8 9 11 11 9 5 5 9 9 10 11 12 12 12 12 12 13 13 14 14 15 15 16 17 18 18 18 18 17 17 16 15 14 13 13 12 12 12 12 12
12 11 11 11 11 10 10 9 9 10 10 11 10 10 10 10 10 9 10 10 9 8 8 8 8 7 5 3 3 4 3 5 11 9 8 9 8 10 6 2 4 5 5 5 6 6 6 8 11 11 6 4 7 9 9 10 10 10 10 10 11 12 13 14 14 15 16 16 18 19 20 20 19 17 17 16 16 15 14 13 12 12 11 12 12
11 11 11 10 9 9 10 10 9 9 9 9 9 9 9 9 9 10 10 10 10 10 11 11 10 9 9 8 7 7 6 7 12 11 9 8 11 12 5 3 5 5 3 6 6 4 4 6 8 10 8 5 4 5 6 6 7 8 9 10 11 12 13 13 15 16 17 18 18 20 22 22 20 18 17 16 16 16 15 15 13 12 11 11 12
10 10 10 10 9 9 10 10 9 9 9 9 8 7 7 8 9 10 9 10 9 10 12 11 11 10 9 9 8 7 7 8 11 10 9 9 10 13 8 4 5 2 3 3 6 2 3 4 4 7 8 8 7 4 4 5 5 6 7 9 10 12 13 14 15 17 18 19 19 21 22 22 20 18 16 16 16 16 17 16 15 13 12 12 12
10 10 10 10 9 9 9 10 11 10 10 8 6 6 7 7 10 11 10 9 8 9 11 10 9 9 8 8 8 8 9 8 10 8 7 10 12 13 9 6 6 3 3 2 2 1 2 2 2 5 6 7 9 7 6 6 6 6 6 9 11 12 14 15 16 17 18 20 20 21 23 22 19 17 16 16 16 17 17 17 17 16 14 13 13
10 10 9 10 10 9 8 10 11 10 9 8 5 5 7 7 10 12 10 8 8 9 10 9 9 9 7 7 7 8 9 8 8 6 6 9 11 11 8 7 8 5 3 2 1 3 3 2 1 3 4 6 9 9 9 8 8 8 9 10 11 13 15 16 17 17 18 20 21 21 22 21 18 17 16 16 17 18 18 19 18 18 16 15 14
10 10 9 10 10 9 8 9 10 9 7 7 6 5 6 7 8 11 10 8 8 10 10 10 10 9 7 7 6 6 7 7 7 4 3 6 8 8 6 5 6 5 4 3 2 1 6 4 1 2 4 6 8 10 11 10 11 11 11 12 12 13 16 17 17 18 19 20 21 21 21 20 18 18 17 17 18 19 20 20 20 19 18 17 16
10 10 9 10 10 10 10 9 9 9 6 6 7 7 7 6 7 8 9 9 9 10 10 11 10 9 8 6 5 6 6 4 4 3 2 3 6 6 4 1 2 4 2 0 4 2 4 5 4 5 4 8 10 12 11 12 13 14 13 13 12 13 16 17 18 19 19 20 20 20 19 19 19 19 20 20 20 20 22 22 21 20 19 18 17
10 10 10 10 10 10 10 9 8 8 7 6 7 7 6 6 6 6 7 8 9 9 10 10 9 8 7 5 5 7 6 3 4 3 2 1 4 4 2 2 0 2 2 3 3 2 1 3 4 4 6 10 12 12 12 14 15 15 12 11 11 13 15 17 19 21 21 20 19 18 18 18 19 20 22 22 22 22 23 23 22 21 20 19 18
11 11 11 10 10 9 9 9 9 9 8 8 7 7 6 6 6 6 6 7 7 7 8 9 7 6 5 4 4 6 5 3 3 3 1 0 2 3 3 3 3 2 3 5 6 4 3 3 4 5 7 10 10 10 12 14 14 12 10 10 12 12 14 16 19 23 22 19 16 16 17 18 18 20 22 23 23 24 24 23 22 22 20 19 18
11 10 10 10 10 9 8 9 9 9 8 8 8 7 6 6 6 6 6 6 6 7 7 8 7 5 3 2 3 4 4 3 4 4 3 2 3 4 5 5 6 6 5 6 7 6 4 5 6 8 9 10 10 10 11 12 12 12 13 14 14 13 13 15 20 24 21 16 15 16 17 18 19 19 21 22 23 24 25 24 25 24 22 20 19
10 10 9 9 9 9 9 8 8 8 8 7 8 8 6 5 6 5 5 6 7 6 6 6 7 5 3 1 2 3 2 2 3 5 4 3 4 5 5 5 6 7 8 8 8 7 6 5 6 7 8 10 10 11 13 12 10 13 15 15 14 13 14 16 21 23 17 13 14 16 17 19 20 20 20 21 22 24 25 25 27 27 24 21 20
10 10 10 9 9 9 10 9 8 8 8 7 8 8 7 6 6 6 6 7 7 6 6 6 5 4 3 2 1 2 1 1 2 3 3 3 3 5 4 4 5 6 8 9 9 8 8 8 9 9 8 8 9 11 14 14 13 13 14 14 15 15 16 18 22 19 13 12 15 16 18 20 20 20 20 21 21 23 25 25 27 28 25 22 21
11 11 12 12 10 10 10 9 9 8 8 9 8 8 8 7 6 7 6 6 6 5 5 6 5 4 3 2 2 3 2 1 2 2 2 2 4 6 5 4 5 7 8 10 10 8 8 9 11 12 11 10 10 10 13 16 16 15 15 16 18 18 18 20 19 14 11 13 15 16 19 21 20 20 21 21 21 22 24 25 26 28 26 23 22
11 11 13 13 11 10 10 9 9 8 8 9 9 9 8 8 8 7 6 5 5 5 5 5 5 5 3 2 3 4 4 3 3 2 1 3 5 5 5 5 6 8 9 11 12 10 9 9 11 12 13 12 12 12 12 14 16 15 16 18 19 19 18 17 14 13 13 14 15 17 20 20 19 20 21 21 20 21 23 24 25 27 25 24 23
10 10 11 12 11 10 9 9 9 9 9 9 9 8 8 8 8 8 7 5 5 5 5 5 5 6 5 4 5 6 5 6 6 5 3 3 5 6 6 6 7 9 9 11 13 12 10 11 12 12 13 13 13 12 12 12 13 15 17 20 20 18 16 13 12 13 15 14 14 17 19 18 18 19 18 18 19 21 22 22 24 26 24 24 24
10 10 10 10 11 10 10 9 9 9 9 9 9 8 8 8 8 8 7 7 6 5 5 6 6 7 6 6 8 8 8 9 9 9 7 4 3 6 7 7 8 10 10 11 14 13 11 12 14 14 14 14 13 12 12 12 14 16 18 18 17 15 15 15 15 15 15 12 13 18 19 18 17 18 18 18 19 20 20 21 24 25 24 23 22
9 9 10 10 10 10 10 10 9 9 9 9 9 8 8 8 8 8 7 6 6 5 5 7 7 8 7 7 9 9 8 9 9 9 9 7 4 7 9 9 10 11 12 12 14 15 13 13 14 15 14 14 13 13 13 14 15 16 16 15 14 15 16 17 16 15 11 10 14 18 18 18 19 20 19 18 17 18 19 22 25 24 23 22 20
8 9 9 9 9 9 10 10 8 8 8 8 8 8 9 9 9 9 8 6 5 5 5 6 7 8 8 9 9 8 8 8 6 5 7 7 6 7 9 9 10 10 11 12 13 15 16 15 13 13 12 13 13 13 13 14 14 14 15 16 15 14 14 16 16 14 10 11 15 17 17 19 20 18 16 15 16 18 20 24 24 24 23 20 15
9 9 8 9 9 9 8 8 7 7 7 7 7 8 8 8 8 9 9 7 6 7 7 7 7 7 8 9 9 7 6 6 4 4 6 6 7 9 9 9 10 10 12 13 13 15 17 16 14 13 12 12 13 13 12 13 15 15 16 15 14 13 15 17 18 17 16 16 18 19 20 22 19 14 13 16 19 21 23 24 24 23 20 15 11
10 10 9 8 8 8 8 10 10 9 9 8 8 8 8 7 7 8 9 9 8 8 7 7 6 6 7 7 7 5 5 5 6 7 8 9 10 9 9 10 11 11 11 12 13 14 16 17 15 14 13 14 14 13 13 14 15 15 16 16 15 15 16 17 17 17 17 17 19 22 24 23 20 18 18 21 25 26 25 23 22 20 14 10 11
10 11 11 10 9 8 9 11 12 12 12 10 9 8 9 8 6 6 8 10 11 11 10 8 7 7 7 8 7 7 8 8 9 9 9 10 10 9 9 10 10 9 9 10 12 14 15 16 16 15 16 17 17 16 14 14 15 16 17 17 16 16 17 17 15 13 13 15 19 23 23 22 23 25 26 28 29 26 22 20 18 14 10 9 11
11 11 11 12 11 10 10 10 11 12 12 12 10 8 8 8 8 7 7 8 9 10 10 8 7 7 8 7 8 8 8 8 9 9 9 9 9 10 10 10 9 9 10 11 12 12 13 14 16 17 18 18 18 17 14 13 16 18 17 15 14 14 14 14 12 12 15 19 22 22 22 24 27 30 30 29 26 21 18 16 12 10 11 11 11
11 10 11 10 10 11 10 9 9 11 10 11 11 9 9 10 11 11 9 8 9 8 8 7 6 6 7 7 7 7 7 7 8 9 10 9 10 10 9 9 9 10 11 11 12 12 13 15 17 18 19 17 17 17 14 13 15 17 18 18 16 14 13 14 16 19 21 23 22 21 23 26 29 31 30 26 20 16 15 14 12 12 13 14 14
11 10 10 10 10 12 11 8 9 10 9 8 9 9 9 10 12 12 11 10 10 9 9 7 6 5 5 6 7 8 9 10 11 12 12 11 11 11 10 11 12 12 14 14 15 16 17 17 17 17 17 17 17 16 15 15 16 18 19 20 19 19 20 21 22 23 23 22 22 24 26 29 32 31 28 21 16 13 14 14 15 15 14 14 15
10 9 8 8 8 10 9 8 8 10 9 9 10 9 9 9 10 12 12 12 11 10 9 9 8 7 6 8 8 9 11 12 11 11 11 11 11 11 11 13 14 15 17 17 18 18 17 16 16 15 16 17 17 17 17 17 18 19 19 19 21 22 23 23 22 21 22 25 27 29 30 32 33 30 25 19 16 13 14 15 16 16 16 16 16
11 10 9 9 9 9 7 6 8 10 11 11 11 11 10 9 9 9 10 10 11 11 10 9 9 8 8 10 11 10 11 11 10 9 10 11 12 12 13 14 15 16 17 17 17 17 16 16 16 15 16 17 16 16 17 17 18 18 19 21 23 23 23 24 25 23 25 29 32 33 33 33 32 29 24 21 18 15 15 16 17 16 16 16 16
11 10 9 9 11 11 9 9 11 13 12 11 10 10 10 9 8 8 7 7 7 8 7 7 7 8 8 10 11 11 11 11 11 11 11 11 12 12 13 14 15 16 17 16 15 16 16 18 17 17 17 17 16 16 16 18 18 19 21 22 22 23 24 26 29 29 29 32 35 36 35 33 30 27 25 24 22 19 17 17 18 18 16 15 17
12 12 10 9 11 11 10 11 12 12 11 12 12 11 10 10 10 8 7 7 7 7 7 7 7 7 8 8 10 12 12 13 13 13 12 11 11 12 13 14 14 15 16 16 17 19 18 18 17 17 17 17 17 17 17 18 20 21 21 21 21 23 25 27 30 33 33 33 34 35 36 33 29 27 27 25 23 21 19 18 17 17 17 18 19
13 14 14 12 13 13 13 13 12 11 11 10 10 10 11 11 11 10 9 10 11 11 11 12 12 11 10 10 10 12 13 14 14 14 13 13 13 13 13 14 15 15 16 17 19 18 16 16 16 17 17 18 20 20 18 18 20 21 21 22 23 25 26 28 31 33 34 33 32 33 35 32 28 27 26 25 23 22 21 20 18 18 18 18 18
15 16 16 16 17 18 19 19 17 16 15 13 12 11 11 12 12 12 12 12 14 15 15 15 16 16 15 15 14 14 15 16 16 16 15 15 15 15 16 16 16 17 17 17 17 16 15 15 17 18 19 20 21 21 19 18 20 21 23 24 26 27 29 30 31 31 31 29 27 29 32 29 26 25 25 25 24 24 23 22 22 21 21 21 21
18 18 17 17 17 19 21 22 21 21 20 19 18 17 16 15 14 14 14 14 16 18 18 18 18 19 18 18 18 18 18 18 18 17 17 16 17 17 18 17 17 17 17 16 15 15 16 17 18 20 21 21 21 20 18 19 20 22 24 25 27 28 29 30 29 28 26 24 22 24 27 26 24 26 27 27 27 27 25 24 24 24 23 23 23
20 20 18 17 16 18 20 21 21 21 21 21 21 21 20 19 17 17 17 17 17 19 19 19 19 19 18 19 19 20 20 20 19 19 19 18 18 18 18 17 17 16 16 16 17 18 19 19 20 20 20 21 19 16 15 17 19 21 22 23 24 26 28 29 28 25 22 21 21 22 25 26 25 27 29 29 28 28 25 23 22 22 22 22 22
18 19 19 19 17 18 19 20 20 20 20 20 21 22 21 20 19 19 18 18 19 20 20 20 20 19 19 19 19 20 20 20 20 20 20 20 20 19 19 19 18 17 18 19 20 20 20 20 20 20 21 22 22 20 18 18 20 22 23 23 23 23 25 25 24 23 21 20 20 21 23 25 25 27 29 29 27 26 24 22 22 22 22 22 21
15 16 17 18 19 19 20 20 20 20 20 20 21 21 21 20 19 18 18 19 20 20 20 20 20 19 19 18 18 19 19 19 19 19 19 19 19 19 19 19 18 18 18 19 19 18 18 18 19 20 21 21 22 22 20 19 20 22 23 23 23 22 19 19 20 22 22 20 18 20 23 25 25 26 28 30 29 26 24 24 23 23 23 22 20
12 13 14 15 16 17 17 19 19 19 18 18 19 19 18 18 17 15 15 16 17 17 18 19 19 19 19 18 18 19 18 18 19 19 18 18 18 17 18 17 18 18 17 17 17 17 16 16 16 16 16 17 18 18 18 18 19 20 19 18 18 17 16 17 18 20 21 20 19 20 22 24 25 25 25 27 30 29 27 27 26 24 23 22 21
Wind_Direction
131 132 133 135 133 130 129 128 127 124 125 126 125 121 116 109 101 97 96 95 98 100 94 82 91 112 116 113 102 62 56 69 63 48 43 52 65 66 69 68 66 67 65 65 66 66 69 69 72 71 70 70 69 70 71 72 71 72 73 72 72 71 69 68 65 60 57 56 50 45 42 38 35 33 28 22 18 14 10 9 2 355 342 331 328
131 131 132 135 135 133 131 130 130 128 129 131 128 122 116 111 106 101 96 96 100 110 114 86 78 89 82 72 82 66 52 65 58 46 51 59 70 73 70 69 66 66 65 64 64 64 66 66 67 67 66 66 65 66 67 69 70 71 71 71 71 71 71 68 64 59 55 54 48 42 37 34 31 27 25 21 16 13 7 359 349 342 335 327 323
133 133 133 135 137 137 135 134 135 135 136 136 131 123 117 115 111 104 100 103 105 119 140 132 93 85 71 58 75 64 41 58 54 47 62 70 75 78 74 71 68 67 67 66 66 65 66 67 67 68 68 67 67 67 68 69 70 71 70 71 72 72 71 67 63 58 55 53 48 42 36 31 29 24 22 19 13 10 5 355 346 337 328 321 320
140 140 139 141 143 139 136 138 138 141 144 139 132 125 117 114 112 108 106 110 119 127 140 152 146 96 74 56 63 73 40 50 52 55 70 74 78 80 74 74 73 71 72 72 71 70 70 71 73 74 75 75 75 75 75 75 75 76 77 77 77 75 71 68 63 59 55 52 48 42 38 33 29 26 22 19 15 10 6 0 353 344 334 324 320
151 149 144 144 147 140 134 138 137 140 144 138 132 126 119 113 110 111 109 119 131 135 147 154 167 144 100 84 87 113 109 48 44 51 67 76 81 76 73 78 78 75 76 78 77 75 75 76 77 79 80 80 81 82 82 84 85 86 88 87 83 79 75 70 66 62 59 55 52 46 41 37 31 28 23 20 18 14 11 5 358 350 344 335 329
156 149 138 138 143 136 130 137 139 135 135 135 134 128 123 118 112 109 106 121 119 121 147 155 172 165 131 109 127 127 126 65 40 37 56 79 85 79 81 82 79 78 79 79 77 75 74 75 75 76 77 77 79 83 85 87 89 92 91 90 86 83 80 76 73 69 66 61 57 52 46 42 37 32 28 25 21 18 14 8 3 355 349 344 339
153 142 132 134 134 127 126 135 138 135 132 134 134 128 124 121 117 119 115 118 114 118 148 157 158 168 159 138 143 138 131 99 61 42 54 75 79 80 85 82 77 76 76 72 71 75 75 72 71 70 70 73 75 79 84 86 89 91 90 90 88 86 84 81 77 73 70 66 61 56 51 47 43 39 35 32 28 23 19 12 7 0 354 349 344
147 141 134 135 133 128 132 135 132 129 129 132 132 126 122 120 127 146 143 130 124 126 152 168 159 163 158 136 141 149 150 139 111 61 56 67 66 66 69 74 76 74 72 64 68 79 78 73 68 65 62 62 67 70 75 80 84 87 88 89 89 87 84 80 78 74 70 66 61 56 52 47 43 41 38 36 33 28 24 19 13 6 359 353 347
144 145 137 140 144 139 138 137 129 123 122 124 122 118 119 126 138 154 161 152 143 145 149 155 156 151 139 134 140 149 157 163 159 84 45 52 53 57 52 62 78 79 73 67 76 82 79 75 69 64 59 56 58 62 69 74 79 84 86 88 86 83 80 77 74 70 67 62 57 51 45 41 37 35 33 32 31 28 25 22 18 13 7 360 354
141 145 139 143 148 140 137 136 128 123 126 118 107 105 114 136 150 144 143 134 139 158 159 159 157 138 129 138 144 149 145 151 164 171 113 61 60 65 55 59 70 74 71 70 80 82 78 75 69 65 62 59 59 62 69 74 79 82 83 83 81 79 74 71 67 63 59 53 47 42 36 32 27 25 23 21 21 21 19 17 16 15 12 8 3
144 147 139 138 140 129 127 129 125 123 119 108 99 104 121 144 148 132 116 109 116 130 135 164 171 152 145 149 144 150 146 141 142 134 117 77 73 72 69 76 67 58 59 64 72 76 81 77 69 66 61 59 60 62 69 75 80 80 79 78 75 73 68 64 60 54 50 44 39 34 28 24 20 18 16 13 12 12 12 11 9 9 11 11 11
148 149 140 134 133 122 126 133 134 131 113 104 111 120 128 139 138 124 113 111 113 117 119 145 159 148 159 163 150 145 145 149 144 129 114 98 96 77 71 78 69 54 48 49 57 63 77 79 74 71 63 58 57 57 61 67 75 77 75 73 69 66 62 57 54 49 44 39 34 29 23 19 16 13 11 9 8 7 6 6 3 3 4 6 11
142 143 140 138 133 127 141 148 140 138 126 121 131 129 130 138 137 125 115 111 113 129 131 132 135 121 128 146 149 147 149 164 161 142 119 108 112 108 89 80 71 68 66 63 60 58 63 69 76 78 66 62 60 58 59 61 67 71 72 69 64 60 56 53 49 45 41 37 32 26 21 16 13 11 9 7 5 5 4 2 1 0 359 359 4
147 147 147 144 142 144 155 157 140 140 139 135 134 131 133 139 138 120 108 112 121 137 138 133 138 132 124 127 139 149 157 170 172 164 125 98 106 127 123 92 70 65 70 69 68 66 56 50 68 81 65 62 65 64 66 67 66 67 65 63 60 56 53 49 45 41 37 33 29 23 18 13 10 8 7 6 3 2 1 360 359 359 358 356 358
155 153 152 144 144 151 151 147 143 139 136 132 126 125 129 138 136 120 112 118 127 138 136 139 153 155 156 153 151 168 182 179 187 193 158 101 101 130 135 102 66 58 62 60 64 70 57 45 47 56 58 69 70 68 73 74 71 67 62 57 54 50 46 42 38 35 31 28 24 19 14 9 5 3 3 3 1 359 358 357 356 356 358 357 357
156 152 153 147 145 148 143 139 139 133 130 126 118 118 124 136 138 128 123 120 124 135 120 128 154 161 179 192 179 180 202 180 184 200 194 151 113 127 134 105 77 75 70 58 56 62 56 48 42 35 43 74 79 79 81 79 74 69 60 50 46 39 35 31 28 27 24 22 19 14 10 6 2 1 0 359 358 358 356 355 354 354 357 358 357
158 153 153 153 149 145 140 136 135 132 130 122 116 119 123 134 142 132 129 124 120 122 117 126 139 132 127 131 125 98 71 147 149 146 177 188 165 140 128 107 84 70 80 71 50 51 49 44 37 30 29 66 88 91 87 80 68 59 49 38 33 26 21 18 16 16 15 14 13 9 6 2 360 359 359 357 357 358 356 354 353 351 354 356 356
159 157 155 158 154 147 140 134 133 131 129 123 116 118 121 131 142 132 130 132 124 124 128 131 125 105 97 93 82 76 81 137 140 120 120 158 182 172 148 98 67 47 96 82 47 31 28 31 33 29 25 25 53 79 76 65 46 38 32 23 19 16 11 7 4 4 5 6 6 4 2 359 357 357 358 359 358 358 357 356 355 352 350 351 352
162 161 158 159 155 150 145 135 131 128 126 126 119 118 121 131 144 141 140 141 134 134 134 130 124 117 111 102 91 85 94 126 138 136 118 110 151 171 169 142 79 36 222 71 47 47 27 27 19 21 25 13 8 21 37 31 17 19 21 13 9 6 3 0 356 355 358 360 358 358 358 356 355 356 358 0 1 1 0 358 357 354 350 347 346
163 162 159 161 156 152 151 139 135 134 125 124 131 127 119 127 145 149 149 145 141 142 140 137 131 123 118 116 109 94 86 105 127 138 127 103 122 144 147 151 127 96 250 269 26 16 14 12 331 2 19 11 10 18 18 6 351 350 355 353 354 355 355 354 350 350 353 354 353 354 356 356 355 357 0 2 4 4 2 359 357 354 351 346 342
163 164 163 165 161 154 152 141 138 140 128 126 145 135 116 127 144 148 154 150 142 142 144 142 133 125 124 121 119 106 88 86 104 119 129 113 125 143 130 132 147 117 93 154 202 285 267 255 324 351 354 3 14 13 3 353 340 334 330 332 343 351 352 349 347 348 349 348 350 353 356 357 357 359 2 3 5 5 3 359 356 352 348 344 341
166 167 168 167 165 157 148 144 144 147 136 130 142 138 131 141 147 150 155 153 143 143 147 145 134 132 138 130 131 133 107 87 86 86 116 114 124 154 141 118 145 133 106 120 65 265 222 232 283 278 315 349 358 353 348 342 334 329 325 326 338 350 353 351 348 346 344 343 347 351 356 0 2 3 3 3 4 3 1 358 355 351 348 344 340
170 169 172 168 167 160 151 152 158 158 151 141 142 146 150 152 150 151 155 155 150 146 148 146 138 136 140 137 142 144 124 106 104 76 50 121 125 141 156 121 123 134 150 336 24 60 195 225 236 239 299 333 332 333 337 335 327 321 319 324 335 346 349 348 346 345 343 341 345 350 356 3 7 8 5 3 1 1 359 356 354 352 350 346 342
175 174 176 171 169 169 164 164 169 167 163 164 160 158 157 152 150 152 155 159 160 155 150 146 142 141 140 140 152 152 141 136 153 123 49 127 148 144 177 246 114 134 200 267 333 17 203 232 221 240 322 330 325 326 330 331 323 313 315 327 338 343 343 341 342 345 344 343 345 350 356 2 6 6 4 3 2 0 358 355 354 353 351 349 345
179 177 181 177 172 177 178 171 173 174 169 172 174 171 161 155 160 160 157 160 162 163 158 151 151 152 144 148 166 170 167 169 174 162 103 170 190 190 215 248 250 223 240 269 291 296 304 296 259 277 323 333 331 329 334 336 327 320 326 337 341 342 338 334 337 341 343 344 347 351 355 357 358 358 0 2 2 1 359 357 355 353 351 350 347
182 179 182 182 173 181 193 182 176 178 176 175 176 175 167 164 171 169 162 159 162 170 168 161 165 167 153 155 182 187 187 201 210 207 210 232 261 249 243 254 253 249 252 265 280 285 298 307 284 281 304 321 324 326 336 337 336 340 342 340 342 341 336 332 331 334 339 342 344 348 352 351 350 352 355 357 357 358 359 359 357 354 351 350 348
188 181 180 186 182 186 200 198 186 181 181 184 181 177 171 166 173 175 171 164 167 180 180 169 173 182 184 173 194 201 200 220 228 234 238 253 280 268 261 273 267 261 259 259 268 273 271 278 278 281 300 315 320 325 331 331 335 340 339 340 340 335 337 333 326 329 338 342 340 344 348 346 344 346 349 351 351 353 356 358 358 355 352 351 350
193 182 178 196 203 196 201 203 194 187 187 187 183 179 178 177 175 178 180 175 174 179 184 183 175 166 173 171 212 242 266 321 267 267 266 268 291 289 293 314 307 293 284 277 274 269 262 263 270 277 289 306 317 326 330 328 328 329 330 332 327 325 330 326 322 331 347 347 341 342 344 341 340 343 345 346 346 347 351 354 355 355 352 351 351
196 188 186 201 212 204 200 202 197 194 193 189 188 189 187 184 179 180 187 188 185 186 191 194 180 168 177 179 209 259 279 300 298 294 289 302 310 302 301 321 322 311 306 302 296 287 277 275 281 285 286 291 298 314 325 326 325 324 323 322 317 316 317 316 325 344 354 345 340 337 336 334 335 340 343 342 342 344 346 348 351 353 352 351 350
197 198 197 204 214 209 203 203 200 198 197 194 195 195 189 185 186 192 194 187 193 205 206 207 202 199 207 203 204 233 259 266 268 269 306 333 318 306 304 309 313 311 310 309 306 305 303 300 300 299 300 298 295 300 311 318 322 320 316 313 311 314 315 318 334 348 342 337 335 333 334 333 333 338 342 342 340 342 342 342 346 349 350 351 350
199 208 209 208 210 209 206 209 207 202 201 200 201 199 192 191 190 196 199 194 206 218 212 216 218 209 216 236 229 226 237 248 258 261 268 306 312 318 318 308 304 310 312 305 301 305 312 315 313 312 311 308 306 304 302 305 312 312 308 306 308 319 327 331 338 336 328 328 332 335 335 334 335 337 340 341 340 340 338 338 342 345 347 349 349
200 209 213 210 208 206 209 215 213 209 206 205 208 204 197 199 198 198 202 202 210 226 232 232 225 211 218 244 245 236 234 239 249 256 258 271 301 302 297 294 294 298 301 298 298 303 310 313 315 317 315 312 313 313 307 303 304 305 305 306 312 323 329 328 326 321 319 327 338 336 333 333 334 333 335 339 341 339 336 335 338 339 340 342 343
200 209 213 211 206 204 210 215 216 215 211 211 217 211 200 203 205 206 213 213 212 226 243 244 236 226 231 248 252 248 249 252 252 255 256 248 257 285 288 288 287 285 286 288 293 300 306 312 315 316 316 316 318 319 317 315 314 312 313 317 322 326 326 326 326 323 324 338 340 330 325 327 327 326 332 339 341 337 333 332 333 333 333 334 334
204 209 215 215 210 209 209 208 215 218 213 214 222 219 208 205 209 216 223 228 237 249 256 257 250 243 249 261 266 266 264 260 257 275 270 239 235 275 285 284 281 276 276 280 285 293 299 309 317 318 319 321 323 328 329 329 332 333 332 334 337 341 345 348 348 347 346 345 338 329 326 329 328 329 337 341 338 332 329 329 330 329 326 323 324
216 212 218 219 215 219 212 205 219 229 221 223 232 229 220 212 213 220 223 227 243 251 253 258 252 245 250 258 265 269 265 259 265 305 298 250 240 262 265 268 279 280 279 281 284 289 296 307 317 320 325 326 329 338 339 337 340 343 342 343 346 352 355 355 352 350 346 343 342 340 336 336 338 341 342 337 332 329 327 330 332 330 324 321 329
216 217 219 220 217 220 210 202 218 234 235 236 238 237 235 228 220 217 218 225 238 247 252 255 251 248 250 254 262 267 267 268 270 280 277 259 258 266 260 265 279 283 285 287 289 293 297 305 313 320 328 330 332 337 336 334 339 342 340 339 340 340 342 344 342 341 340 339 337 335 333 335 341 343 338 333 331 331 331 334 334 328 324 331 338
210 213 209 211 218 226 217 207 212 224 234 239 240 237 233 236 246 235 220 225 235 245 254 258 258 259 257 258 260 257 255 257 259 266 271 266 268 273 269 271 279 284 288 290 294 298 300 306 315 322 325 325 325 327 330 331 332 334 335 334 334 334 334 335 333 332 335 330 324 324 327 332 338 341 338 333 333 334 336 337 335 331 332 340 339
212 215 210 209 215 224 230 224 218 223 229 234 242 240 222 224 253 262 249 240 239 245 255 262 265 262 259 266 272 264 259 257 255 260 269 273 279 281 276 277 282 284 287 288 291 295 299 303 308 310 312 314 316 320 329 334 331 333 337 338 337 336 332 327 323 320 321 321 320 321 325 331 337 339 337 335 336 340 343 343 346 350 348 345 340
212 220 220 216 216 224 233 232 225 227 232 235 244 243 222 217 232 244 250 254 254 255 257 260 266 263 261 275 286 282 276 280 284 277 266 262 272 280 283 284 281 280 283 285 285 286 288 291 294 299 305 311 316 323 332 334 328 330 335 336 333 328 321 315 312 312 314 316 317 320 326 331 335 337 337 339 342 350 357 359 0 358 351 344 339
211 218 223 220 218 220 227 228 223 228 236 238 241 241 233 227 230 236 243 248 254 259 257 255 256 257 264 276 285 289 286 288 295 292 277 262 262 271 282 290 288 284 283 282 284 286 288 291 297 306 313 318 323 327 328 325 319 319 322 322 319 315 311 307 307 310 313 315 318 322 326 331 334 336 338 341 350 360 5 3 357 354 351 345 340
207 211 222 235 234 226 228 231 229 234 239 237 239 239 238 237 238 242 246 248 253 257 259 258 254 252 260 265 268 276 277 273 276 284 283 276 273 277 287 295 294 291 288 286 285 288 292 298 306 314 316 318 323 324 323 323 322 319 317 313 309 309 309 308 309 313 316 319 322 322 325 331 334 335 335 340 350 358 357 354 352 351 348 341 334
217 213 216 234 242 240 242 235 227 233 234 235 243 244 239 238 239 244 249 257 263 266 268 270 268 269 270 267 266 269 273 273 273 279 282 278 278 283 286 289 293 294 291 288 286 290 295 299 304 309 309 311 317 320 320 324 325 322 316 313 311 312 314 314 314 317 322 324 324 322 325 331 333 332 331 336 341 344 343 341 341 343 344 339 332
213 211 206 213 222 229 234 223 221 232 237 240 249 248 240 236 234 237 249 265 273 273 276 286 291 290 291 287 281 276 274 274 276 279 276 267 265 273 276 278 288 296 295 291 292 295 298 300 301 303 303 306 312 315 315 318 319 316 312 312 313 313 316 318 318 321 325 326 323 320 322 328 331 327 327 332 335 335 331 328 328 330 331 329 326
208 209 208 205 208 218 226 223 224 235 240 242 246 246 242 239 236 241 250 257 261 259 262 275 281 281 287 287 278 273 273 275 276 277 276 269 263 264 266 271 283 294 296 296 300 302 302 301 299 299 302 305 307 308 307 307 306 305 305 307 310 311 314 316 316 318 321 322 321 318 318 323 327 324 323 326 327 325 322 322 323 324 321 319 318
221 221 223 223 222 225 231 232 233 236 237 238 240 241 243 244 244 247 248 249 253 252 254 263 268 268 270 272 271 273 275 279 281 279 276 277 273 264 262 270 282 289 293 296 299 300 300 299 298 300 303 304 304 304 302 297 296 299 302 303 305 308 309 311 313 314 316 318 318 315 314 318 323 321 320 322 320 318 318 320 320 320 318 315 312
231 232 234 236 237 237 239 241 241 242 244 246 244 242 245 247 248 250 250 247 248 250 254 262 269 269 268 267 271 275 277 279 284 285 282 281 280 272 268 272 279 286 290 292 292 292 293 296 298 299 300 301 302 302 300 295 292 295 297 298 300 303 305 307 309 310 312 315 316 314 312 318 323 320 319 321 320 317 317 317 315 315 314 314 312
233 236 238 238 238 239 241 244 245 246 248 250 252 252 252 252 252 252 252 248 244 246 253 261 269 273 272 270 269 273 277 281 284 285 285 285 284 281 276 275 278 284 289 289 287 287 290 292 294 296 299 301 300 299 297 293 291 291 292 293 296 298 300 302 303 306 310 316 319 317 315 320 325 322 320 321 319 317 317 316 315 315 315 315 314
232 237 239 238 238 239 241 243 246 247 248 250 252 253 253 253 252 251 251 249 245 247 253 260 266 272 275 274 271 271 274 277 280 283 286 288 287 283 278 278 281 283 283 282 282 284 287 288 289 290 292 293 291 292 293 289 288 290 290 292 294 296 297 299 302 307 314 320 323 323 320 322 325 323 322 324 323 321 322 323 323 323 323 322 320
235 240 242 242 242 243 244 245 246 247 248 249 250 253 254 252 250 248 248 248 249 253 257 261 266 270 274 275 274 273 273 275 277 279 282 284 284 282 281 283 283 283 283 283 284 285 285 285 285 284 283 282 282 286 292 293 292 293 294 296 297 299 302 303 306 311 318 323 328 328 323 322 326 327 326 326 327 328 331 335 336 335 334 332 330
238 241 245 247 247 247 248 249 250 251 252 252 254 255 256 254 251 247 245 246 249 254 258 263 267 270 272 273 274 275 277 278 280 282 282 282 282 282 284 287 289 290 290 289 289 288 286 283 283 283 285 286 282 282 288 293 293 295 299 301 299 301 310 315 315 316 319 324 332 331 324 323 327 330 330 327 327 330 335 338 340 342 342 340 339
244 246 250 252 250 249 252 254 255 256 257 257 258 256 255 257 255 251 248 249 250 253 257 262 266 267 268 271 274 277 280 282 283 284 283 282 282 284 288 292 294 295 295 295 295 294 293 290 287 286 288 291 288 286 289 292 294 300 307 311 308 312 323 326 324 322 320 324 332 332 326 325 327 331 335 334 330 328 330 332 335 339 341 341 342